sat.trackr.live / text

‹ back to catalog

STARLINK-3657

NORAD 51990 · 2022-025AL

PAYLOAD ACTIVE UNKNOWN

§ Identity

Operator
Country
US
Launch date
2022-03-09
Launch site
AFETR
Launch vehicle
Mass (kg)
RCS (m²)

Purposes: comms

External: N2YO · Heavens-Above · Gunter

§ Orbital elements

Epoch: 2026-05-24T23:43:08.338944Z

Period
95.44 min
Inclination
53.2143°
Eccentricity
0.0001908
Mean motion
15.08836461 rev/d
Perigee alt
538.4 km
Apogee alt
541.1 km
Semi-major
6,917.9 km
B*
7.9056e-6
RAAN
36.6013°
Arg perigee
91.0129°
Mean anomaly
269.1082°
Rev number
23,285

§ Raw data

STARLINK-36571 51990U 22025AL  26144.98829096 -.00000162  00000+0  79056-5 0  99942 51990  53.2143  36.6013 0001908  91.0129 269.1082 15.08836461232853

JSON: /api/v1/satellites/51990 · /tle

For live sub-satellite position, see the globe view (requires WebGL).

§ Visibility from observer

Set your observer location to see the next 7 days of passes ≥ 10°. The values pass through the URL so the page stays shareable.

No JS? Fill the form by hand. The geolocation button needs JavaScript.